[[{"header":{"parameterUnit":"m.s-1","parameterCategory":1,"la1":30.2992,"la2":30.254,"lo1":-89.0895,"lo2":-89.0443,"dy":0.0025,"dx":0.0025,"nx":19,"ny":19,"refTime":"2026-04-02T03:00:00:Z","depth":0,"parameterNumber":2,"parameterNumberName":"U-component_of_WINDS"},"data":[0,0,0,-3.8103,-3.8106,-3.826,-3.8261,-3.8456,-3.8458,0,0,0,0,0,0,0,0,0,0,0,-3.8056,-3.8057,-3.8102,-3.8106,-3.826,-3.8261,-3.8456,-3.8458,0,0,0,0,0,0,0,0,0,0,0,-3.8055,-3.8057,-3.8058,-3.8107,-3.826,-3.8261,-3.8455,-3.834,0,0,0,0,0,0,0,0,0,0,-3.819,-3.8146,-3.8056,-3.8058,-3.8108,-3.826,-3.8261,-3.8334,-3.8347,-3.8385,0,-3.842,0,-3.8442,-3.8471,-3.8471,0,0,0,-3.8107,-3.8135,-3.8178,-3.8059,-3.8109,-3.826,-3.8191,-3.8341,-3.8356,-3.8402,-3.8422,-3.843,-3.8445,-3.8472,-3.8473,-3.8693,-3.8694,0,0,-3.8098,-3.8083,-3.8168,-3.8187,-3.8164,-3.8186,-3.8196,-3.835,-3.8371,-3.8423,-3.8434,-3.8448,-3.8473,-3.8475,-3.8692,-3.8693,0,0,0,-3.8073,-3.8077,-3.8116,-3.8179,-3.8207,-3.819,-3.8202,-3.8364,-3.8378,-3.8436,-3.8451,-3.8474,-3.8477,-3.8691,-3.8692,-3.8725,0,0,0,-3.8068,-3.8062,-3.8112,-3.8104,-3.8204,-3.8287,-3.8212,-3.8367,-3.8385,-3.845,-3.8475,-3.8479,-3.869,-3.8692,-3.8722,-3.8742,0,0,0,-3.8046,-3.806,-3.8082,-3.8103,-3.8169,-3.8285,-3.8308,-3.8371,-3.8394,-3.8472,-3.8479,-3.8689,-3.8691,-3.8719,-3.8738,-3.8795,0,0,0,-3.8018,-3.8109,-3.8082,-3.819,-3.8167,-3.8305,-3.8307,-3.8411,-3.8482,-3.8475,-3.869,-3.8692,-3.8718,-3.8735,-3.8791,-3.8838,-3.8857,0,0,-3.8124,-3.8121,-3.8186,-3.8166,-3.8304,-3.8283,-3.8426,-3.8506,-3.8528,-3.8637,-3.8642,-3.8723,-3.8737,-3.8794,-3.897,-3.8984,0,0,0,-3.8214,-3.826,-3.83,-3.8367,-3.843,-3.8486,-3.8546,-3.8575,-3.8668,-3.8581,-3.876,-3.877,-3.8803,-3.8826,-3.8839,-3.8868,-3.8703,-3.8702,-3.8702,-3.8341,-3.8364,-3.8472,-3.8514,-3.8579,-3.864,-3.8695,-3.8745,-3.875,-3.8792,-3.8823,-3.8927,-3.8954,-3.8963,-3.8993,-3.8852,-3.8852,-3.8852,-3.8852,-3.8497,-3.8565,-3.857,-3.8676,-3.8701,-3.879,-3.8853,-3.8853,-3.894,-3.8905,-3.8936,-3.8894,-3.8978,-3.9006,-3.8855,-3.8854,-3.8854,-3.8854,-3.8854,-3.8581,-3.8618,-3.8653,-3.8752,-3.8825,-3.8866,-3.8949,-3.8968,-3.8987,-3.9018,-3.9053,-3.9053,-3.9053,-3.9034,-3.9034,-3.9035,-3.9035,-3.9035,-3.9036,-3.8653,-3.8692,-3.8759,-3.8835,-3.888,-3.8942,-3.9005,-3.9051,-3.9106,-3.9114,-3.9114,-3.9113,-3.8983,-3.8948,-3.9041,-3.904,-3.9039,-3.9039,-3.9038,-3.88,-3.877,-3.8874,-3.8919,-3.9009,-3.9081,-3.9106,-3.9197,-3.9237,-3.9277,-3.9272,-3.9172,-3.917,-3.9161,-3.9132,-3.9267,-3.9267,-3.9267,-3.9267,-3.8869,-3.887,-3.8981,-3.9052,-3.9125,-3.9158,-3.9274,-3.9325,-3.9372,-3.9398,-3.9382,-3.9347,-3.9336,-3.9341,-3.9327,-3.9301,-3.9476,-3.9476,-3.9476,-3.8959,-3.8969,-3.9064,-3.9109,-3.9182,-3.9243,-3.9353,-3.9435,-3.9483,-3.9485,-3.9419,-3.941,-3.9354,-3.9334,-3.9332,-3.931,-3.9262,0,0]},{"header":{"parameterUnit":"m.s-1","parameterCategory":1,"la1":30.2992,"la2":30.254,"lo1":-89.0895,"lo2":-89.0443,"dy":0.0025,"dx":0.0025,"nx":19,"ny":19,"refTime":"2026-04-02T03:00:00:Z","depth":0,"parameterNumber":3,"parameterNumberName":"V-component_of_WINDS"},"data":[0,0,0,3.0308,3.0311,3.0444,3.0444,3.061,3.0611,0,0,0,0,0,0,0,0,0,0,0,3.0267,3.0268,3.0308,3.0311,3.0444,3.0444,3.0609,3.0611,0,0,0,0,0,0,0,0,0,0,0,3.0266,3.0267,3.0269,3.0312,3.0444,3.0444,3.0609,3.051,0,0,0,0,0,0,0,0,0,0,3.0382,3.0342,3.0267,3.0269,3.0312,3.0443,3.0444,3.0505,3.0516,3.0548,0,3.0576,0,3.0596,3.0622,3.0622,0,0,0,3.0312,3.0333,3.0371,3.0269,3.0314,3.0443,3.0384,3.0512,3.0524,3.0562,3.0578,3.0584,3.0599,3.0623,3.0624,3.0804,3.0805,0,0,3.0305,3.0289,3.0362,3.0378,3.0359,3.038,3.0388,3.0519,3.0535,3.0579,3.0588,3.0602,3.0624,3.0625,3.0803,3.0804,0,0,0,3.0283,3.0284,3.0319,3.0371,3.0396,3.0384,3.0393,3.0529,3.0542,3.059,3.0603,3.0625,3.0627,3.0802,3.0803,3.0828,0,0,0,3.0279,3.0271,3.0315,3.0307,3.0393,3.0464,3.04,3.0533,3.0548,3.0603,3.0625,3.0628,3.0801,3.0803,3.0825,3.0842,0,0,0,3.0259,3.0269,3.0287,3.0306,3.0362,3.0463,3.0483,3.0537,3.0556,3.0623,3.0629,3.0801,3.0803,3.0823,3.0838,3.0886,0,0,0,3.0232,3.0305,3.0287,3.0375,3.0361,3.0477,3.0482,3.0569,3.0628,3.0626,3.0802,3.0803,3.0822,3.0836,3.0883,3.0923,3.0938,0,0,3.0316,3.0315,3.0368,3.0355,3.0471,3.0458,3.0577,3.0645,3.0665,3.0756,3.0761,3.0826,3.0838,3.0885,3.1027,3.1039,0,0,0,3.0389,3.0426,3.046,3.0517,3.0573,3.0622,3.0675,3.0701,3.0779,3.0709,3.0856,3.0864,3.0892,3.0912,3.0922,3.0948,3.0812,3.0811,3.0811,3.0483,3.0507,3.0596,3.0637,3.0692,3.0747,3.0794,3.0838,3.0844,3.0878,3.0905,3.0989,3.1012,3.102,3.1046,3.0928,3.0928,3.0928,3.0928,3.0609,3.0667,3.0675,3.0765,3.079,3.0865,3.0921,3.0924,3.0997,3.097,3.0996,3.0964,3.1032,3.1057,3.093,3.093,3.093,3.093,3.0929,3.0674,3.0706,3.0737,3.0824,3.0888,3.0925,3.0997,3.1016,3.1034,3.106,3.1092,3.1092,3.1095,3.1074,3.1075,3.1075,3.1075,3.1075,3.1075,3.0729,3.0764,3.0823,3.089,3.093,3.0985,3.1042,3.1082,3.1132,3.114,3.114,3.1144,3.1034,3.1006,3.108,3.1079,3.1079,3.1078,3.1078,3.0849,3.0825,3.0915,3.0956,3.1037,3.11,3.1125,3.1205,3.1241,3.1275,3.1274,3.119,3.119,3.1182,3.1159,3.1268,3.1268,3.1268,3.1268,3.0904,3.0907,3.1005,3.1069,3.1133,3.1165,3.1267,3.1313,3.1356,3.138,3.1367,3.1339,3.133,3.1335,3.1324,3.1303,3.1446,3.1446,3.1447,3.098,3.099,3.1073,3.1116,3.1182,3.1238,3.1334,3.1407,3.1451,3.1454,3.1399,3.1392,3.1346,3.133,3.1331,3.1313,3.1275,0,0]}]]